Location: Baumgarten
(49.0970°N, 12.7493°E)
Time: 03:01:31
(UTC+00:00)

SL-16 R/B - Pass Details

Date: 05 July 2020
Orbit: 839 x 850 km, 71.0° (Epoch: 04 August)

Event Time Altitude Azimuth Distance (km) Brightness Sun altitude
Exits shadow 23:00:53 28° 204° (SSW) 1,546 3.1 -18.2°
Maximum altitude 23:04:02 87° 116° (ESE) 854 2.1 -18.2°
Drops below altitude 10° 23:09:45 10° 29° (NNE) 2,483 5.5 -18.2°
Sets 23:12:13 0° 29° (NNE) 3,424 6.4 -18.2°
